Time,TemperatureF,DewpointF,PressureIn,WindDirection,WindDirectionDegrees,WindSpeedMPH,WindSpeedGustMPH,Humidity,HourlyPrecipIn,Conditions,Clouds,dailyrainin,SoftwareType,DateUTC
2013-01-20 00:00:00,42.1,31.3,29.81,North,-999,-999.0,-999.0,65,-99.99,,,-99.99,meteohub,2013-01-20 05:00:00,
2013-01-20 00:01:00,42.1,31.3,29.81,North,-999,-999.0,-999.0,65,-99.99,,,-99.99,meteohub,2013-01-20 05:01:00,
2013-01-20 00:02:00,42.1,31.3,29.81,North,-999,-999.0,-999.0,65,-99.99,,,-99.99,meteohub,2013-01-20 05:02:00,
2013-01-20 00:04:00,42.3,31.3,29.81,North,-999,-999.0,-999.0,65,-99.99,,,-99.99,meteohub,2013-01-20 05:04:00,
2013-01-20 00:09:00,42.1,31.3,29.81,North,-999,-999.0,-999.0,65,-99.99,,,-99.99,meteohub,2013-01-20 05:09:00,
2013-01-20 00:14:00,42.1,31.3,29.81,North,-999,-999.0,-999.0,65,-99.99,,,-99.99,meteohub,2013-01-20 05:14:00,
2013-01-20 00:20:00,42.1,31.3,29.81,North,-999,-999.0,-999.0,65,-99.99,,,-99.99,meteohub,2013-01-20 05:20:00,
2013-01-20 00:25:00,42.1,31.3,29.81,North,-999,-999.0,-999.0,65,-99.99,,,-99.99,meteohub,2013-01-20 05:25:00,
2013-01-20 00:30:00,42.1,31.3,29.81,North,-999,-999.0,-999.0,65,-99.99,,,-99.99,meteohub,2013-01-20 05:30:00,
2013-01-20 00:35:00,41.9,31.5,29.81,North,-999,-999.0,-999.0,66,-99.99,,,-99.99,meteohub,2013-01-20 05:35:00,
2013-01-20 00:40:00,42.1,31.6,29.81,North,-999,-999.0,-999.0,66,-99.99,,,-99.99,meteohub,2013-01-20 05:40:00,
2013-01-20 00:46:00,42.3,31.8,29.81,North,-999,-999.0,-999.0,66,-99.99,,,-99.99,meteohub,2013-01-20 05:46:00,
2013-01-20 00:51:00,42.3,31.8,29.81,North,-999,-999.0,-999.0,66,-99.99,,,-99.99,meteohub,2013-01-20 05:51:00,
2013-01-20 00:56:00,42.3,32.2,29.81,North,-999,-999.0,-999.0,67,-99.99,,,-99.99,meteohub,2013-01-20 05:56:00,
2013-01-20 01:01:00,42.3,32.2,29.81,North,-999,-999.0,-999.0,67,-99.99,,,-99.99,meteohub,2013-01-20 06:01:00,
2013-01-20 01:06:00,42.1,32.0,29.81,North,-999,-999.0,-999.0,67,-99.99,,,-99.99,meteohub,2013-01-20 06:06:00,
2013-01-20 01:11:00,42.1,32.0,29.81,North,-999,-999.0,-999.0,67,-99.99,,,-99.99,meteohub,2013-01-20 06:11:00,
2013-01-20 01:16:00,41.7,31.6,29.81,North,-999,-999.0,-999.0,67,-99.99,,,-99.99,meteohub,2013-01-20 06:16:00,
2013-01-20 01:22:00,41.7,31.6,29.81,North,-999,-999.0,-999.0,67,-99.99,,,-99.99,meteohub,2013-01-20 06:22:00,
2013-01-20 01:27:00,41.5,31.5,29.81,North,-999,-999.0,-999.0,67,-99.99,,,-99.99,meteohub,2013-01-20 06:27:00,
2013-01-20 01:32:00,41.2,31.5,29.81,North,-999,-999.0,-999.0,68,-99.99,,,-99.99,meteohub,2013-01-20 06:32:00,
2013-01-20 01:37:00,41.2,31.5,29.81,North,-999,-999.0,-999.0,68,-99.99,,,-99.99,meteohub,2013-01-20 06:37:00,
2013-01-20 01:42:00,41.2,31.5,29.81,North,-999,-999.0,-999.0,68,-99.99,,,-99.99,meteohub,2013-01-20 06:42:00,
2013-01-20 01:47:00,41.0,31.6,29.81,North,-999,-999.0,-999.0,69,-99.99,,,-99.99,meteohub,2013-01-20 06:47:00,
2013-01-20 01:52:00,41.0,31.6,29.81,North,-999,-999.0,-999.0,69,-99.99,,,-99.99,meteohub,2013-01-20 06:52:00,
2013-01-20 01:57:00,41.0,31.6,29.81,North,-999,-999.0,-999.0,69,-99.99,,,-99.99,meteohub,2013-01-20 06:57:00,
2013-01-20 02:02:00,41.0,32.0,29.81,North,-999,-999.0,-999.0,70,-99.99,,,-99.99,meteohub,2013-01-20 07:02:00,
2013-01-20 02:07:00,41.2,32.2,29.81,North,-999,-999.0,-999.0,70,-99.99,,,-99.99,meteohub,2013-01-20 07:07:00,
2013-01-20 02:12:00,41.0,31.6,29.81,North,-999,-999.0,-999.0,69,-99.99,,,-99.99,meteohub,2013-01-20 07:12:00,
2013-01-20 02:17:00,41.2,31.8,29.81,North,-999,-999.0,-999.0,69,-99.99,,,-99.99,meteohub,2013-01-20 07:17:00,
2013-01-20 02:22:00,41.2,31.8,29.78,North,-999,-999.0,-999.0,69,-99.99,,,-99.99,meteohub,2013-01-20 07:22:00,
2013-01-20 02:27:00,41.2,31.8,29.78,North,-999,-999.0,-999.0,69,-99.99,,,-99.99,meteohub,2013-01-20 07:27:00,
2013-01-20 02:32:00,41.2,31.8,29.78,North,-999,-999.0,-999.0,69,-99.99,,,-99.99,meteohub,2013-01-20 07:32:00,
2013-01-20 02:38:00,41.4,31.6,29.78,North,-999,-999.0,-999.0,68,-99.99,,,-99.99,meteohub,2013-01-20 07:38:00,
2013-01-20 02:43:00,41.4,31.6,29.78,North,-999,-999.0,-999.0,68,-99.99,,,-99.99,meteohub,2013-01-20 07:43:00,
2013-01-20 02:48:00,41.4,31.6,29.78,North,-999,-999.0,-999.0,68,-99.99,,,-99.99,meteohub,2013-01-20 07:48:00,
2013-01-20 02:53:00,41.2,31.5,29.78,North,-999,-999.0,-999.0,68,-99.99,,,-99.99,meteohub,2013-01-20 07:53:00,
2013-01-20 02:58:00,41.2,31.5,29.78,North,-999,-999.0,-999.0,68,-99.99,,,-99.99,meteohub,2013-01-20 07:58:00,
2013-01-20 03:03:00,41.2,31.5,29.78,North,-999,-999.0,-999.0,68,-99.99,,,-99.99,meteohub,2013-01-20 08:03:00,
2013-01-20 03:08:00,41.4,31.3,29.78,North,-999,-999.0,-999.0,67,-99.99,,,-99.99,meteohub,2013-01-20 08:08:00,
2013-01-20 03:13:00,41.4,31.3,29.78,North,-999,-999.0,-999.0,67,-99.99,,,-99.99,meteohub,2013-01-20 08:13:00,
2013-01-20 03:19:00,41.2,31.1,29.78,North,-999,-999.0,-999.0,67,-99.99,,,-99.99,meteohub,2013-01-20 08:19:00,
2013-01-20 03:24:00,41.2,31.1,29.78,North,-999,-999.0,-999.0,67,-99.99,,,-99.99,meteohub,2013-01-20 08:24:00,
2013-01-20 03:29:00,41.2,31.1,29.78,North,-999,-999.0,-999.0,67,-99.99,,,-99.99,meteohub,2013-01-20 08:29:00,
2013-01-20 03:34:00,41.0,30.9,29.78,North,-999,-999.0,-999.0,67,-99.99,,,-99.99,meteohub,2013-01-20 08:34:00,
2013-01-20 03:39:00,41.2,31.1,29.78,North,-999,-999.0,-999.0,67,-99.99,,,-99.99,meteohub,2013-01-20 08:39:00,
2013-01-20 03:44:00,41.0,30.9,29.78,North,-999,-999.0,-999.0,67,-99.99,,,-99.99,meteohub,2013-01-20 08:44:00,
2013-01-20 03:49:00,41.4,31.3,29.75,North,-999,-999.0,-999.0,67,-99.99,,,-99.99,meteohub,2013-01-20 08:49:00,
2013-01-20 03:54:00,41.4,31.3,29.75,North,-999,-999.0,-999.0,67,-99.99,,,-99.99,meteohub,2013-01-20 08:54:00,
2013-01-20 03:59:00,41.4,30.9,29.75,North,-999,-999.0,-999.0,66,-99.99,,,-99.99,meteohub,2013-01-20 08:59:00,
2013-01-20 04:05:00,41.5,30.7,29.75,North,-999,-999.0,-999.0,65,-99.99,,,-99.99,meteohub,2013-01-20 09:05:00,
2013-01-20 04:10:00,41.5,30.7,29.75,North,-999,-999.0,-999.0,65,-99.99,,,-99.99,meteohub,2013-01-20 09:10:00,
2013-01-20 04:15:00,41.5,30.7,29.75,North,-999,-999.0,-999.0,65,-99.99,,,-99.99,meteohub,2013-01-20 09:15:00,
2013-01-20 04:20:00,41.7,30.9,29.75,North,-999,-999.0,-999.0,65,-99.99,,,-99.99,meteohub,2013-01-20 09:20:00,
2013-01-20 04:25:00,41.7,30.6,29.75,North,-999,-999.0,-999.0,64,-99.99,,,-99.99,meteohub,2013-01-20 09:25:00,
2013-01-20 04:30:00,41.7,30.6,29.75,North,-999,-999.0,-999.0,64,-99.99,,,-99.99,meteohub,2013-01-20 09:30:00,
2013-01-20 04:35:00,41.7,30.6,29.75,North,-999,-999.0,-999.0,64,-99.99,,,-99.99,meteohub,2013-01-20 09:35:00,
2013-01-20 04:41:00,41.7,30.6,29.75,North,-999,-999.0,-999.0,64,-99.99,,,-99.99,meteohub,2013-01-20 09:41:00,
2013-01-20 04:46:00,41.5,29.8,29.75,North,-999,-999.0,-999.0,63,-99.99,,,-99.99,meteohub,2013-01-20 09:46:00,
2013-01-20 04:51:00,41.7,30.0,29.75,North,-999,-999.0,-999.0,63,-99.99,,,-99.99,meteohub,2013-01-20 09:51:00,
2013-01-20 04:56:00,41.7,29.7,29.75,North,-999,-999.0,-999.0,62,-99.99,,,-99.99,meteohub,2013-01-20 09:56:00,
2013-01-20 05:01:00,41.5,29.5,29.75,North,-999,-999.0,-999.0,62,-99.99,,,-99.99,meteohub,2013-01-20 10:01:00,
2013-01-20 05:06:00,41.5,29.8,29.75,North,-999,-999.0,-999.0,63,-99.99,,,-99.99,meteohub,2013-01-20 10:06:00,
2013-01-20 05:11:00,41.4,29.7,29.75,North,-999,-999.0,-999.0,63,-99.99,,,-99.99,meteohub,2013-01-20 10:11:00,
2013-01-20 05:16:00,41.4,29.3,29.75,North,-999,-999.0,-999.0,62,-99.99,,,-99.99,meteohub,2013-01-20 10:16:00,
2013-01-20 05:21:00,41.4,28.9,29.75,North,-999,-999.0,-999.0,61,-99.99,,,-99.99,meteohub,2013-01-20 10:21:00,
2013-01-20 05:27:00,41.2,29.1,29.75,North,-999,-999.0,-999.0,62,-99.99,,,-99.99,meteohub,2013-01-20 10:27:00,
2013-01-20 05:32:00,41.2,29.1,29.75,North,-999,-999.0,-999.0,62,-99.99,,,-99.99,meteohub,2013-01-20 10:32:00,
2013-01-20 05:37:00,41.4,28.9,29.75,North,-999,-999.0,-999.0,61,-99.99,,,-99.99,meteohub,2013-01-20 10:37:00,
2013-01-20 05:42:00,41.5,29.1,29.75,North,-999,-999.0,-999.0,61,-99.99,,,-99.99,meteohub,2013-01-20 10:42:00,
2013-01-20 05:47:00,41.5,29.1,29.75,North,-999,-999.0,-999.0,61,-99.99,,,-99.99,meteohub,2013-01-20 10:47:00,
2013-01-20 05:52:00,41.5,29.1,29.72,North,-999,-999.0,-999.0,61,-99.99,,,-99.99,meteohub,2013-01-20 10:52:00,
2013-01-20 05:57:00,41.4,28.9,29.72,North,-999,-999.0,-999.0,61,-99.99,,,-99.99,meteohub,2013-01-20 10:57:00,
2013-01-20 06:02:00,41.2,28.8,29.72,North,-999,-999.0,-999.0,61,-99.99,,,-99.99,meteohub,2013-01-20 11:02:00,
2013-01-20 06:07:00,41.2,28.8,29.75,North,-999,-999.0,-999.0,61,-99.99,,,-99.99,meteohub,2013-01-20 11:07:00,
2013-01-20 06:12:00,41.2,28.8,29.75,North,-999,-999.0,-999.0,61,-99.99,,,-99.99,meteohub,2013-01-20 11:12:00,
2013-01-20 06:17:00,41.2,28.8,29.75,North,-999,-999.0,-999.0,61,-99.99,,,-99.99,meteohub,2013-01-20 11:17:00,
2013-01-20 06:22:00,41.0,28.6,29.75,North,-999,-999.0,-999.0,61,-99.99,,,-99.99,meteohub,2013-01-20 11:22:00,
2013-01-20 06:27:00,40.6,28.8,29.75,North,-999,-999.0,-999.0,62,-99.99,,,-99.99,meteohub,2013-01-20 11:27:00,
2013-01-20 06:32:00,40.5,28.6,29.75,North,-999,-999.0,-999.0,62,-99.99,,,-99.99,meteohub,2013-01-20 11:32:00,
2013-01-20 06:37:00,40.5,28.6,29.72,North,-999,-999.0,-999.0,62,-99.99,,,-99.99,meteohub,2013-01-20 11:37:00,
2013-01-20 06:43:00,40.3,28.4,29.72,North,-999,-999.0,-999.0,62,-99.99,,,-99.99,meteohub,2013-01-20 11:43:00,
2013-01-20 06:48:00,40.5,28.6,29.72,North,-999,-999.0,-999.0,62,-99.99,,,-99.99,meteohub,2013-01-20 11:48:00,
2013-01-20 06:53:00,40.3,28.4,29.72,North,-999,-999.0,-999.0,62,-99.99,,,-99.99,meteohub,2013-01-20 11:53:00,
2013-01-20 06:58:00,40.3,28.8,29.72,North,-999,-999.0,-999.0,63,-99.99,,,-99.99,meteohub,2013-01-20 11:58:00,
2013-01-20 07:04:00,39.7,28.2,29.72,North,-999,-999.0,-999.0,63,-99.99,,,-99.99,meteohub,2013-01-20 12:04:00,
2013-01-20 07:09:00,39.4,27.9,29.75,North,-999,-999.0,-999.0,63,-99.99,,,-99.99,meteohub,2013-01-20 12:09:00,
2013-01-20 07:14:00,39.4,28.2,29.75,North,-999,-999.0,-999.0,64,-99.99,,,-99.99,meteohub,2013-01-20 12:14:00,
2013-01-20 07:19:00,39.2,28.0,29.75,North,-999,-999.0,-999.0,64,-99.99,,,-99.99,meteohub,2013-01-20 12:19:00,
2013-01-20 07:24:00,38.8,28.0,29.75,North,-999,-999.0,-999.0,65,-99.99,,,-99.99,meteohub,2013-01-20 12:24:00,
2013-01-20 07:29:00,38.8,28.0,29.75,North,-999,-999.0,-999.0,65,-99.99,,,-99.99,meteohub,2013-01-20 12:29:00,
2013-01-20 07:34:00,38.8,28.4,29.75,North,-999,-999.0,-999.0,66,-99.99,,,-99.99,meteohub,2013-01-20 12:34:00,
2013-01-20 07:39:00,39.0,28.6,29.75,North,-999,-999.0,-999.0,66,-99.99,,,-99.99,meteohub,2013-01-20 12:39:00,
2013-01-20 07:44:00,39.2,28.4,29.75,North,-999,-999.0,-999.0,65,-99.99,,,-99.99,meteohub,2013-01-20 12:44:00,
2013-01-20 07:50:00,39.4,28.6,29.75,North,-999,-999.0,-999.0,65,-99.99,,,-99.99,meteohub,2013-01-20 12:50:00,
2013-01-20 07:55:00,39.4,28.6,29.75,North,-999,-999.0,-999.0,65,-99.99,,,-99.99,meteohub,2013-01-20 12:55:00,
2013-01-20 08:00:00,39.4,28.6,29.75,North,-999,-999.0,-999.0,65,-99.99,,,-99.99,meteohub,2013-01-20 13:00:00,
2013-01-20 08:05:00,39.4,28.6,29.78,North,-999,-999.0,-999.0,65,-99.99,,,-99.99,meteohub,2013-01-20 13:05:00,
2013-01-20 08:10:00,39.4,28.6,29.78,North,-999,-999.0,-999.0,65,-99.99,,,-99.99,meteohub,2013-01-20 13:10:00,
2013-01-20 08:15:00,39.7,28.9,29.78,North,-999,-999.0,-999.0,65,-99.99,,,-99.99,meteohub,2013-01-20 13:15:00,
2013-01-20 08:21:00,39.9,29.1,29.78,North,-999,-999.0,-999.0,65,-99.99,,,-99.99,meteohub,2013-01-20 13:21:00,
2013-01-20 08:26:00,40.3,29.1,29.78,North,-999,-999.0,-999.0,64,-99.99,,,-99.99,meteohub,2013-01-20 13:26:00,
2013-01-20 08:31:00,40.5,29.3,29.78,North,-999,-999.0,-999.0,64,-99.99,,,-99.99,meteohub,2013-01-20 13:31:00,
2013-01-20 08:37:00,41.0,29.8,29.78,North,-999,-999.0,-999.0,64,-99.99,,,-99.99,meteohub,2013-01-20 13:37:00,
2013-01-20 08:42:00,41.5,29.8,29.78,North,-999,-999.0,-999.0,63,-99.99,,,-99.99,meteohub,2013-01-20 13:42:00,
2013-01-20 08:47:00,42.1,30.4,29.78,North,-999,-999.0,-999.0,63,-99.99,,,-99.99,meteohub,2013-01-20 13:47:00,
2013-01-20 08:52:00,42.4,30.7,29.78,North,-999,-999.0,-999.0,63,-99.99,,,-99.99,meteohub,2013-01-20 13:52:00,
2013-01-20 08:57:00,42.8,30.7,29.78,North,-999,-999.0,-999.0,62,-99.99,,,-99.99,meteohub,2013-01-20 13:57:00,
2013-01-20 09:02:00,43.0,30.6,29.78,North,-999,-999.0,-999.0,61,-99.99,,,-99.99,meteohub,2013-01-20 14:02:00,
2013-01-20 09:07:00,43.5,30.6,29.81,North,-999,-999.0,-999.0,60,-99.99,,,-99.99,meteohub,2013-01-20 14:07:00,
2013-01-20 09:12:00,43.9,30.9,29.81,North,-999,-999.0,-999.0,60,-99.99,,,-99.99,meteohub,2013-01-20 14:12:00,
2013-01-20 09:17:00,44.2,30.9,29.81,North,-999,-999.0,-999.0,59,-99.99,,,-99.99,meteohub,2013-01-20 14:17:00,
2013-01-20 09:23:00,44.6,30.7,29.78,North,-999,-999.0,-999.0,58,-99.99,,,-99.99,meteohub,2013-01-20 14:23:00,
2013-01-20 09:28:00,45.0,31.1,29.78,North,-999,-999.0,-999.0,58,-99.99,,,-99.99,meteohub,2013-01-20 14:28:00,
2013-01-20 09:33:00,45.1,30.9,29.78,North,-999,-999.0,-999.0,57,-99.99,,,-99.99,meteohub,2013-01-20 14:33:00,
2013-01-20 09:38:00,45.3,30.2,29.81,North,-999,-999.0,-999.0,55,-99.99,,,-99.99,meteohub,2013-01-20 14:38:00,
2013-01-20 09:44:00,45.5,30.4,29.81,North,-999,-999.0,-999.0,55,-99.99,,,-99.99,meteohub,2013-01-20 14:44:00,
2013-01-20 09:49:00,46.2,30.6,29.78,North,-999,-999.0,-999.0,54,-99.99,,,-99.99,meteohub,2013-01-20 14:49:00,
2013-01-20 09:54:00,46.4,30.7,29.78,North,-999,-999.0,-999.0,54,-99.99,,,-99.99,meteohub,2013-01-20 14:54:00,
2013-01-20 09:59:00,47.1,31.8,29.78,North,-999,-999.0,-999.0,55,-99.99,,,-99.99,meteohub,2013-01-20 14:59:00,
2013-01-20 10:04:00,47.8,32.0,29.78,North,-999,-999.0,-999.0,54,-99.99,,,-99.99,meteohub,2013-01-20 15:04:00,
2013-01-20 10:09:00,48.6,31.3,29.78,North,-999,-999.0,-999.0,51,-99.99,,,-99.99,meteohub,2013-01-20 15:09:00,
2013-01-20 10:15:00,49.5,33.1,29.78,North,-999,-999.0,-999.0,53,-99.99,,,-99.99,meteohub,2013-01-20 15:15:00,
2013-01-20 10:20:00,50.5,33.6,29.78,North,-999,-999.0,-999.0,52,-99.99,,,-99.99,meteohub,2013-01-20 15:20:00,
2013-01-20 10:25:00,51.4,34.0,29.78,North,-999,-999.0,-999.0,51,-99.99,,,-99.99,meteohub,2013-01-20 15:25:00,
2013-01-20 10:30:00,52.0,32.9,29.78,North,-999,-999.0,-999.0,48,-99.99,,,-99.99,meteohub,2013-01-20 15:30:00,
2013-01-20 10:35:00,52.7,33.6,29.78,North,-999,-999.0,-999.0,48,-99.99,,,-99.99,meteohub,2013-01-20 15:35:00,
2013-01-20 10:40:00,53.8,34.5,29.78,North,-999,-999.0,-999.0,48,-99.99,,,-99.99,meteohub,2013-01-20 15:40:00,
2013-01-20 10:46:00,54.1,33.3,29.78,North,-999,-999.0,-999.0,45,-99.99,,,-99.99,meteohub,2013-01-20 15:46:00,
2013-01-20 10:51:00,54.5,33.6,29.78,North,-999,-999.0,-999.0,45,-99.99,,,-99.99,meteohub,2013-01-20 15:51:00,
2013-01-20 10:56:00,55.0,33.6,29.78,North,-999,-999.0,-999.0,44,-99.99,,,-99.99,meteohub,2013-01-20 15:56:00,
2013-01-20 11:01:00,55.8,33.1,29.78,North,-999,-999.0,-999.0,42,-99.99,,,-99.99,meteohub,2013-01-20 16:01:00,
2013-01-20 11:06:00,56.7,34.5,29.78,North,-999,-999.0,-999.0,43,-99.99,,,-99.99,meteohub,2013-01-20 16:06:00,
2013-01-20 11:11:00,57.2,34.3,29.78,North,-999,-999.0,-999.0,42,-99.99,,,-99.99,meteohub,2013-01-20 16:11:00,
2013-01-20 11:16:00,57.2,33.1,29.78,North,-999,-999.0,-999.0,40,-99.99,,,-99.99,meteohub,2013-01-20 16:16:00,
2013-01-20 11:21:00,57.6,34.7,29.75,North,-999,-999.0,-999.0,42,-99.99,,,-99.99,meteohub,2013-01-20 16:21:00,
2013-01-20 11:26:00,57.4,33.3,29.75,North,-999,-999.0,-999.0,40,-99.99,,,-99.99,meteohub,2013-01-20 16:26:00,
2013-01-20 11:31:00,57.4,32.7,29.75,North,-999,-999.0,-999.0,39,-99.99,,,-99.99,meteohub,2013-01-20 16:31:00,
2013-01-20 11:37:00,57.7,32.9,29.75,North,-999,-999.0,-999.0,39,-99.99,,,-99.99,meteohub,2013-01-20 16:37:00,
2013-01-20 11:42:00,57.6,31.5,29.75,North,-999,-999.0,-999.0,37,-99.99,,,-99.99,meteohub,2013-01-20 16:42:00,
2013-01-20 11:47:00,57.7,32.9,29.75,North,-999,-999.0,-999.0,39,-99.99,,,-99.99,meteohub,2013-01-20 16:47:00,
2013-01-20 11:52:00,58.1,33.3,29.75,North,-999,-999.0,-999.0,39,-99.99,,,-99.99,meteohub,2013-01-20 16:52:00,
2013-01-20 11:57:00,58.5,33.6,29.75,North,-999,-999.0,-999.0,39,-99.99,,,-99.99,meteohub,2013-01-20 16:57:00,
2013-01-20 12:02:00,59.0,34.2,29.75,North,-999,-999.0,-999.0,39,-99.99,,,-99.99,meteohub,2013-01-20 17:02:00,
2013-01-20 12:07:00,60.4,34.7,29.72,North,-999,-999.0,-999.0,38,-99.99,,,-99.99,meteohub,2013-01-20 17:07:00,
2013-01-20 12:12:00,62.1,36.1,29.72,North,-999,-999.0,-999.0,38,-99.99,,,-99.99,meteohub,2013-01-20 17:12:00,
2013-01-20 12:17:00,63.1,35.8,29.72,North,-999,-999.0,-999.0,36,-99.99,,,-99.99,meteohub,2013-01-20 17:17:00,
2013-01-20 12:22:00,63.9,36.5,29.72,North,-999,-999.0,-999.0,36,-99.99,,,-99.99,meteohub,2013-01-20 17:22:00,
2013-01-20 12:28:00,64.0,36.0,29.72,North,-999,-999.0,-999.0,35,-99.99,,,-99.99,meteohub,2013-01-20 17:28:00,
2013-01-20 12:33:00,63.3,35.2,29.72,North,-999,-999.0,-999.0,35,-99.99,,,-99.99,meteohub,2013-01-20 17:33:00,
2013-01-20 12:38:00,63.7,35.6,29.72,North,-999,-999.0,-999.0,35,-99.99,,,-99.99,meteohub,2013-01-20 17:38:00,
2013-01-20 12:43:00,63.9,35.8,29.72,North,-999,-999.0,-999.0,35,-99.99,,,-99.99,meteohub,2013-01-20 17:43:00,
2013-01-20 12:48:00,64.0,36.0,29.72,North,-999,-999.0,-999.0,35,-99.99,,,-99.99,meteohub,2013-01-20 17:48:00,
2013-01-20 12:53:00,64.2,36.0,29.69,North,-999,-999.0,-999.0,35,-99.99,,,-99.99,meteohub,2013-01-20 17:53:00,
2013-01-20 12:58:00,64.6,36.3,29.69,North,-999,-999.0,-999.0,35,-99.99,,,-99.99,meteohub,2013-01-20 17:58:00,
2013-01-20 13:03:00,64.8,35.8,29.69,North,-999,-999.0,-999.0,34,-99.99,,,-99.99,meteohub,2013-01-20 18:03:00,
2013-01-20 13:08:00,65.1,36.1,29.69,North,-999,-999.0,-999.0,34,-99.99,,,-99.99,meteohub,2013-01-20 18:08:00,
2013-01-20 13:14:00,64.8,35.8,29.69,North,-999,-999.0,-999.0,34,-99.99,,,-99.99,meteohub,2013-01-20 18:14:00,
2013-01-20 13:19:00,64.2,35.2,29.69,North,-999,-999.0,-999.0,34,-99.99,,,-99.99,meteohub,2013-01-20 18:19:00,
2013-01-20 13:24:00,64.9,36.0,29.69,North,-999,-999.0,-999.0,34,-99.99,,,-99.99,meteohub,2013-01-20 18:24:00,
2013-01-20 13:29:00,64.9,36.0,29.69,North,-999,-999.0,-999.0,34,-99.99,,,-99.99,meteohub,2013-01-20 18:29:00,
2013-01-20 13:34:00,64.8,35.1,29.69,North,-999,-999.0,-999.0,33,-99.99,,,-99.99,meteohub,2013-01-20 18:34:00,
2013-01-20 13:39:00,64.4,34.7,29.69,North,-999,-999.0,-999.0,33,-99.99,,,-99.99,meteohub,2013-01-20 18:39:00,
2013-01-20 13:44:00,65.1,36.1,29.69,North,-999,-999.0,-999.0,34,-99.99,,,-99.99,meteohub,2013-01-20 18:44:00,
2013-01-20 13:49:00,65.1,36.1,29.66,North,-999,-999.0,-999.0,34,-99.99,,,-99.99,meteohub,2013-01-20 18:49:00,
2013-01-20 13:54:00,65.1,36.1,29.66,North,-999,-999.0,-999.0,34,-99.99,,,-99.99,meteohub,2013-01-20 18:54:00,
2013-01-20 14:00:00,64.8,35.1,29.66,North,-999,-999.0,-999.0,33,-99.99,,,-99.99,meteohub,2013-01-20 19:00:00,
2013-01-20 14:05:00,64.8,35.8,29.66,North,-999,-999.0,-999.0,34,-99.99,,,-99.99,meteohub,2013-01-20 19:05:00,
2013-01-20 14:10:00,64.4,34.7,29.66,North,-999,-999.0,-999.0,33,-99.99,,,-99.99,meteohub,2013-01-20 19:10:00,
2013-01-20 14:15:00,64.2,34.5,29.66,North,-999,-999.0,-999.0,33,-99.99,,,-99.99,meteohub,2013-01-20 19:15:00,
2013-01-20 14:20:00,64.2,35.2,29.66,North,-999,-999.0,-999.0,34,-99.99,,,-99.99,meteohub,2013-01-20 19:20:00,
2013-01-20 14:25:00,64.2,35.2,29.66,North,-999,-999.0,-999.0,34,-99.99,,,-99.99,meteohub,2013-01-20 19:25:00,
2013-01-20 14:30:00,64.0,34.3,29.66,North,-999,-999.0,-999.0,33,-99.99,,,-99.99,meteohub,2013-01-20 19:30:00,
2013-01-20 14:35:00,64.0,35.1,29.66,North,-999,-999.0,-999.0,34,-99.99,,,-99.99,meteohub,2013-01-20 19:35:00,
2013-01-20 14:40:00,64.0,34.3,29.66,North,-999,-999.0,-999.0,33,-99.99,,,-99.99,meteohub,2013-01-20 19:40:00,
2013-01-20 14:46:00,63.7,34.2,29.66,North,-999,-999.0,-999.0,33,-99.99,,,-99.99,meteohub,2013-01-20 19:46:00,
2013-01-20 14:51:00,63.5,34.0,29.66,North,-999,-999.0,-999.0,33,-99.99,,,-99.99,meteohub,2013-01-20 19:51:00,
2013-01-20 14:56:00,63.5,34.0,29.66,North,-999,-999.0,-999.0,33,-99.99,,,-99.99,meteohub,2013-01-20 19:56:00,
2013-01-20 15:01:00,63.3,33.8,29.66,North,-999,-999.0,-999.0,33,-99.99,,,-99.99,meteohub,2013-01-20 20:01:00,
2013-01-20 15:06:00,63.1,33.6,29.66,North,-999,-999.0,-999.0,33,-99.99,,,-99.99,meteohub,2013-01-20 20:06:00,
2013-01-20 15:11:00,63.1,33.6,29.66,North,-999,-999.0,-999.0,33,-99.99,,,-99.99,meteohub,2013-01-20 20:11:00,
2013-01-20 15:16:00,63.0,32.7,29.66,North,-999,-999.0,-999.0,32,-99.99,,,-99.99,meteohub,2013-01-20 20:16:00,
2013-01-20 15:21:00,63.0,33.4,29.66,North,-999,-999.0,-999.0,33,-99.99,,,-99.99,meteohub,2013-01-20 20:21:00,
2013-01-20 15:26:00,62.8,32.5,29.66,North,-999,-999.0,-999.0,32,-99.99,,,-99.99,meteohub,2013-01-20 20:26:00,
2013-01-20 15:32:00,62.6,33.1,29.66,North,-999,-999.0,-999.0,33,-99.99,,,-99.99,meteohub,2013-01-20 20:32:00,
2013-01-20 15:37:00,62.4,32.9,29.66,North,-999,-999.0,-999.0,33,-99.99,,,-99.99,meteohub,2013-01-20 20:37:00,
2013-01-20 15:42:00,62.2,33.6,29.66,North,-999,-999.0,-999.0,34,-99.99,,,-99.99,meteohub,2013-01-20 20:42:00,
2013-01-20 15:47:00,62.1,33.4,29.66,North,-999,-999.0,-999.0,34,-99.99,,,-99.99,meteohub,2013-01-20 20:47:00,
2013-01-20 15:52:00,61.9,33.3,29.66,North,-999,-999.0,-999.0,34,-99.99,,,-99.99,meteohub,2013-01-20 20:52:00,
2013-01-20 15:57:00,61.9,33.3,29.66,North,-999,-999.0,-999.0,34,-99.99,,,-99.99,meteohub,2013-01-20 20:57:00,
2013-01-20 16:02:00,61.7,33.1,29.66,North,-999,-999.0,-999.0,34,-99.99,,,-99.99,meteohub,2013-01-20 21:02:00,
2013-01-20 16:08:00,61.7,33.1,29.66,North,-999,-999.0,-999.0,34,-99.99,,,-99.99,meteohub,2013-01-20 21:08:00,
2013-01-20 16:13:00,61.7,33.1,29.66,North,-999,-999.0,-999.0,34,-99.99,,,-99.99,meteohub,2013-01-20 21:13:00,
2013-01-20 16:18:00,61.3,32.7,29.66,North,-999,-999.0,-999.0,34,-99.99,,,-99.99,meteohub,2013-01-20 21:18:00,
2013-01-20 16:23:00,61.3,32.7,29.66,North,-999,-999.0,-999.0,34,-99.99,,,-99.99,meteohub,2013-01-20 21:23:00,
2013-01-20 16:28:00,61.0,32.5,29.66,North,-999,-999.0,-999.0,34,-99.99,,,-99.99,meteohub,2013-01-20 21:28:00,
2013-01-20 16:33:00,60.8,32.4,29.66,North,-999,-999.0,-999.0,34,-99.99,,,-99.99,meteohub,2013-01-20 21:33:00,
2013-01-20 16:39:00,60.6,32.2,29.69,North,-999,-999.0,-999.0,34,-99.99,,,-99.99,meteohub,2013-01-20 21:39:00,
2013-01-20 16:44:00,60.3,32.5,29.69,North,-999,-999.0,-999.0,35,-99.99,,,-99.99,meteohub,2013-01-20 21:44:00,
2013-01-20 16:49:00,60.1,32.4,29.66,North,-999,-999.0,-999.0,35,-99.99,,,-99.99,meteohub,2013-01-20 21:49:00,
2013-01-20 16:54:00,59.5,31.8,29.66,North,-999,-999.0,-999.0,35,-99.99,,,-99.99,meteohub,2013-01-20 21:54:00,
2013-01-20 16:59:00,59.2,31.6,29.66,North,-999,-999.0,-999.0,35,-99.99,,,-99.99,meteohub,2013-01-20 21:59:00,
2013-01-20 17:04:00,59.2,31.6,29.66,North,-999,-999.0,-999.0,35,-99.99,,,-99.99,meteohub,2013-01-20 22:04:00,
2013-01-20 17:10:00,58.8,31.3,29.66,North,-999,-999.0,-999.0,35,-99.99,,,-99.99,meteohub,2013-01-20 22:10:00,
2013-01-20 17:15:00,58.5,31.6,29.66,North,-999,-999.0,-999.0,36,-99.99,,,-99.99,meteohub,2013-01-20 22:15:00,
2013-01-20 17:20:00,57.7,30.9,29.69,North,-999,-999.0,-999.0,36,-99.99,,,-99.99,meteohub,2013-01-20 22:20:00,
2013-01-20 17:25:00,57.2,30.6,29.69,North,-999,-999.0,-999.0,36,-99.99,,,-99.99,meteohub,2013-01-20 22:25:00,
2013-01-20 17:30:00,56.5,30.6,29.69,North,-999,-999.0,-999.0,37,-99.99,,,-99.99,meteohub,2013-01-20 22:30:00,
2013-01-20 17:36:00,56.1,30.2,29.72,North,-999,-999.0,-999.0,37,-99.99,,,-99.99,meteohub,2013-01-20 22:36:00,
2013-01-20 17:41:00,55.4,30.2,29.72,North,-999,-999.0,-999.0,38,-99.99,,,-99.99,meteohub,2013-01-20 22:41:00,
2013-01-20 17:46:00,54.9,29.8,29.72,North,-999,-999.0,-999.0,38,-99.99,,,-99.99,meteohub,2013-01-20 22:46:00,
2013-01-20 17:51:00,54.5,29.5,29.69,North,-999,-999.0,-999.0,38,-99.99,,,-99.99,meteohub,2013-01-20 22:51:00,
2013-01-20 17:56:00,53.8,29.5,29.69,North,-999,-999.0,-999.0,39,-99.99,,,-99.99,meteohub,2013-01-20 22:56:00,
2013-01-20 18:02:00,53.1,29.5,29.69,North,-999,-999.0,-999.0,40,-99.99,,,-99.99,meteohub,2013-01-20 23:02:00,
2013-01-20 18:07:00,52.7,29.7,29.72,North,-999,-999.0,-999.0,41,-99.99,,,-99.99,meteohub,2013-01-20 23:07:00,
2013-01-20 18:12:00,52.0,29.7,29.72,North,-999,-999.0,-999.0,42,-99.99,,,-99.99,meteohub,2013-01-20 23:12:00,
2013-01-20 18:17:00,51.4,30.4,29.72,North,-999,-999.0,-999.0,44,-99.99,,,-99.99,meteohub,2013-01-20 23:17:00,
2013-01-20 18:22:00,51.1,30.0,29.72,North,-999,-999.0,-999.0,44,-99.99,,,-99.99,meteohub,2013-01-20 23:22:00,
2013-01-20 18:27:00,50.4,30.4,29.72,North,-999,-999.0,-999.0,46,-99.99,,,-99.99,meteohub,2013-01-20 23:27:00,
2013-01-20 18:32:00,50.2,30.7,29.72,North,-999,-999.0,-999.0,47,-99.99,,,-99.99,meteohub,2013-01-20 23:32:00,
2013-01-20 18:37:00,49.8,30.4,29.72,North,-999,-999.0,-999.0,47,-99.99,,,-99.99,meteohub,2013-01-20 23:37:00,
2013-01-20 18:42:00,49.3,30.4,29.72,North,-999,-999.0,-999.0,48,-99.99,,,-99.99,meteohub,2013-01-20 23:42:00,
2013-01-20 18:47:00,48.9,30.2,29.72,North,-999,-999.0,-999.0,48,-99.99,,,-99.99,meteohub,2013-01-20 23:47:00,
2013-01-20 18:53:00,48.7,30.6,29.72,North,-999,-999.0,-999.0,49,-99.99,,,-99.99,meteohub,2013-01-20 23:53:00,
2013-01-20 18:58:00,48.2,30.0,29.72,North,-999,-999.0,-999.0,49,-99.99,,,-99.99,meteohub,2013-01-20 23:58:00,
2013-01-20 19:03:00,47.8,30.2,29.72,North,-999,-999.0,-999.0,50,-99.99,,,-99.99,meteohub,2013-01-21 00:03:00,
2013-01-20 19:08:00,47.5,29.8,29.72,North,-999,-999.0,-999.0,50,-99.99,,,-99.99,meteohub,2013-01-21 00:08:00,
2013-01-20 19:13:00,47.3,30.2,29.72,North,-999,-999.0,-999.0,51,-99.99,,,-99.99,meteohub,2013-01-21 00:13:00,
2013-01-20 19:18:00,47.1,30.0,29.72,North,-999,-999.0,-999.0,51,-99.99,,,-99.99,meteohub,2013-01-21 00:18:00,
2013-01-20 19:24:00,46.8,30.0,29.72,North,-999,-999.0,-999.0,52,-99.99,,,-99.99,meteohub,2013-01-21 00:24:00,
2013-01-20 19:29:00,46.6,30.0,29.72,North,-999,-999.0,-999.0,52,-99.99,,,-99.99,meteohub,2013-01-21 00:29:00,
2013-01-20 19:34:00,46.2,30.9,29.72,North,-999,-999.0,-999.0,55,-99.99,,,-99.99,meteohub,2013-01-21 00:34:00,
2013-01-20 19:39:00,46.0,30.7,29.72,North,-999,-999.0,-999.0,55,-99.99,,,-99.99,meteohub,2013-01-21 00:39:00,
2013-01-20 19:44:00,45.9,31.1,29.72,North,-999,-999.0,-999.0,56,-99.99,,,-99.99,meteohub,2013-01-21 00:44:00,
2013-01-20 19:49:00,45.5,30.4,29.75,North,-999,-999.0,-999.0,55,-99.99,,,-99.99,meteohub,2013-01-21 00:49:00,
2013-01-20 19:54:00,45.5,30.7,29.75,North,-999,-999.0,-999.0,56,-99.99,,,-99.99,meteohub,2013-01-21 00:54:00,
2013-01-20 19:59:00,45.1,30.9,29.75,North,-999,-999.0,-999.0,57,-99.99,,,-99.99,meteohub,2013-01-21 00:59:00,
2013-01-20 20:05:00,45.0,30.7,29.75,North,-999,-999.0,-999.0,57,-99.99,,,-99.99,meteohub,2013-01-21 01:05:00,
2013-01-20 20:10:00,44.8,30.0,29.75,North,-999,-999.0,-999.0,56,-99.99,,,-99.99,meteohub,2013-01-21 01:10:00,
2013-01-20 20:15:00,44.6,30.4,29.75,North,-999,-999.0,-999.0,57,-99.99,,,-99.99,meteohub,2013-01-21 01:15:00,
2013-01-20 20:20:00,44.4,30.6,29.75,North,-999,-999.0,-999.0,58,-99.99,,,-99.99,meteohub,2013-01-21 01:20:00,
2013-01-20 20:25:00,44.2,30.4,29.75,North,-999,-999.0,-999.0,58,-99.99,,,-99.99,meteohub,2013-01-21 01:25:00,
2013-01-20 20:30:00,44.2,30.9,29.75,North,-999,-999.0,-999.0,59,-99.99,,,-99.99,meteohub,2013-01-21 01:30:00,
2013-01-20 20:35:00,44.1,30.7,29.75,North,-999,-999.0,-999.0,59,-99.99,,,-99.99,meteohub,2013-01-21 01:35:00,
2013-01-20 20:40:00,43.7,31.1,29.75,North,-999,-999.0,-999.0,61,-99.99,,,-99.99,meteohub,2013-01-21 01:40:00,
2013-01-20 20:45:00,43.5,30.6,29.75,North,-999,-999.0,-999.0,60,-99.99,,,-99.99,meteohub,2013-01-21 01:45:00,
2013-01-20 20:50:00,43.5,30.6,29.75,North,-999,-999.0,-999.0,60,-99.99,,,-99.99,meteohub,2013-01-21 01:50:00,
2013-01-20 20:56:00,43.7,30.7,29.75,North,-999,-999.0,-999.0,60,-99.99,,,-99.99,meteohub,2013-01-21 01:56:00,
2013-01-20 21:01:00,43.9,30.6,29.75,North,-999,-999.0,-999.0,59,-99.99,,,-99.99,meteohub,2013-01-21 02:01:00,
2013-01-20 21:06:00,44.2,30.0,29.75,North,-999,-999.0,-999.0,57,-99.99,,,-99.99,meteohub,2013-01-21 02:06:00,
2013-01-20 21:11:00,44.2,29.7,29.75,North,-999,-999.0,-999.0,56,-99.99,,,-99.99,meteohub,2013-01-21 02:11:00,
2013-01-20 21:17:00,44.2,29.1,29.75,North,-999,-999.0,-999.0,55,-99.99,,,-99.99,meteohub,2013-01-21 02:17:00,
2013-01-20 21:22:00,44.1,28.6,29.75,North,-999,-999.0,-999.0,54,-99.99,,,-99.99,meteohub,2013-01-21 02:22:00,
2013-01-20 21:27:00,43.7,28.2,29.75,North,-999,-999.0,-999.0,54,-99.99,,,-99.99,meteohub,2013-01-21 02:27:00,
2013-01-20 21:32:00,43.5,28.0,29.75,North,-999,-999.0,-999.0,54,-99.99,,,-99.99,meteohub,2013-01-21 02:32:00,
2013-01-20 21:37:00,43.3,28.2,29.78,North,-999,-999.0,-999.0,55,-99.99,,,-99.99,meteohub,2013-01-21 02:37:00,
2013-01-20 21:42:00,43.0,27.5,29.78,North,-999,-999.0,-999.0,54,-99.99,,,-99.99,meteohub,2013-01-21 02:42:00,
2013-01-20 21:47:00,43.0,27.5,29.78,North,-999,-999.0,-999.0,54,-99.99,,,-99.99,meteohub,2013-01-21 02:47:00,
2013-01-20 21:52:00,42.8,27.9,29.75,North,-999,-999.0,-999.0,55,-99.99,,,-99.99,meteohub,2013-01-21 02:52:00,
2013-01-20 21:58:00,42.3,27.3,29.75,North,-999,-999.0,-999.0,55,-99.99,,,-99.99,meteohub,2013-01-21 02:58:00,
2013-01-20 22:03:00,42.1,27.1,29.75,North,-999,-999.0,-999.0,55,-99.99,,,-99.99,meteohub,2013-01-21 03:03:00,
2013-01-20 22:08:00,41.7,27.1,29.75,North,-999,-999.0,-999.0,56,-99.99,,,-99.99,meteohub,2013-01-21 03:08:00,
2013-01-20 22:13:00,41.4,27.0,29.75,North,-999,-999.0,-999.0,56,-99.99,,,-99.99,meteohub,2013-01-21 03:13:00,
2013-01-20 22:18:00,41.2,27.1,29.75,North,-999,-999.0,-999.0,57,-99.99,,,-99.99,meteohub,2013-01-21 03:18:00,
2013-01-20 22:24:00,41.0,27.0,29.78,North,-999,-999.0,-999.0,57,-99.99,,,-99.99,meteohub,2013-01-21 03:24:00,
2013-01-20 22:29:00,40.6,27.1,29.78,North,-999,-999.0,-999.0,58,-99.99,,,-99.99,meteohub,2013-01-21 03:29:00,
2013-01-20 22:34:00,40.3,27.1,29.78,North,-999,-999.0,-999.0,59,-99.99,,,-99.99,meteohub,2013-01-21 03:34:00,
2013-01-20 22:39:00,40.1,27.3,29.78,North,-999,-999.0,-999.0,60,-99.99,,,-99.99,meteohub,2013-01-21 03:39:00,
2013-01-20 22:44:00,39.9,27.1,29.78,North,-999,-999.0,-999.0,60,-99.99,,,-99.99,meteohub,2013-01-21 03:44:00,
2013-01-20 22:50:00,39.7,27.5,29.78,North,-999,-999.0,-999.0,61,-99.99,,,-99.99,meteohub,2013-01-21 03:50:00,
2013-01-20 22:55:00,39.6,27.3,29.78,North,-999,-999.0,-999.0,61,-99.99,,,-99.99,meteohub,2013-01-21 03:55:00,
2013-01-20 23:00:00,39.4,27.5,29.78,North,-999,-999.0,-999.0,62,-99.99,,,-99.99,meteohub,2013-01-21 04:00:00,
2013-01-20 23:05:00,39.0,27.5,29.78,North,-999,-999.0,-999.0,63,-99.99,,,-99.99,meteohub,2013-01-21 04:05:00,
2013-01-20 23:10:00,38.8,27.3,29.78,North,-999,-999.0,-999.0,63,-99.99,,,-99.99,meteohub,2013-01-21 04:10:00,
2013-01-20 23:15:00,38.7,27.5,29.78,North,-999,-999.0,-999.0,64,-99.99,,,-99.99,meteohub,2013-01-21 04:15:00,
2013-01-20 23:21:00,38.7,27.5,29.78,North,-999,-999.0,-999.0,64,-99.99,,,-99.99,meteohub,2013-01-21 04:21:00,
2013-01-20 23:27:00,38.5,27.3,29.78,North,-999,-999.0,-999.0,64,-99.99,,,-99.99,meteohub,2013-01-21 04:27:00,
2013-01-20 23:32:00,38.3,28.0,29.78,North,-999,-999.0,-999.0,66,-99.99,,,-99.99,meteohub,2013-01-21 04:32:00,
2013-01-20 23:37:00,38.1,28.2,29.78,North,-999,-999.0,-999.0,67,-99.99,,,-99.99,meteohub,2013-01-21 04:37:00,
2013-01-20 23:42:00,37.9,27.7,29.78,North,-999,-999.0,-999.0,66,-99.99,,,-99.99,meteohub,2013-01-21 04:42:00,
2013-01-20 23:47:00,37.9,27.3,29.78,North,-999,-999.0,-999.0,65,-99.99,,,-99.99,meteohub,2013-01-21 04:47:00,
2013-01-20 23:52:00,37.6,27.0,29.78,North,-999,-999.0,-999.0,65,-99.99,,,-99.99,meteohub,2013-01-21 04:52:00,
2013-01-20 23:57:00,37.4,27.1,29.78,North,-999,-999.0,-999.0,66,-99.99,,,-99.99,meteohub,2013-01-21 04:57:00,